Startseite
Über Mich
AHP4
Galerie
Sehschlangen
Tourenbuch
Bookmarks
Elektronik
Bewertung
Geschichten
[Tagesmessung] [Jahreswerte] [Information]

Messwerte vom 24.09.2021

Die letzten Messwerte von 04:16:48 Uhr:
KategorieMesswert
Temperatur [°C]11
Luftdruck [mBar]998
Sonneneinstrahlung0
Wind [km/h]0 aus Ost
Niederschlag [l/m²]0
rel.Luftfeucht.96.6%
CO2 [ppm]712

Diagramme
Messwerte vom 24.09.2021
Tagesaggregation
KategorieMinimumMaximumSchnittSumme
Temperatur [°C]111311.8953
Luftdruck [mBar]996998997.6047
Sonneneinstrahlung00.0000
Wind [km/h]10
rF [%]96.696.696.6
Niederschlag [l/m²]0.2575
CO2 [ppm]659733699.8
Einordnung alsVegetationstag

Messungen an benachbarten Tagen: Zur Jahresaggregation 2021
Tabelle aller Messwerte
UhrzeitTemperatur [°C]Luftdruck [mBar]SonneWind [km/h]RichtungRegen [l/m²]rF [%]CO2 [ppm]
00:01:47 13 997 0 6 SW 0 96.6 706
00:04:51 13 996 0 0 SW 0 96.6 715
00:07:48 13 996 0 2 W 0 96.6 724
00:10:49 13 997 0 6 NW 0 96.6 717
00:13:49 13 997 0 5 NW 0 96.6 712
00:16:54 13 997 0 2 W 0 96.6 715
00:19:46 13 997 0 2 SW 0 96.6 713
00:22:50 13 997 0 2 SW 0 96.6 712
00:25:50 13 997 0 1 NW 0 96.6 711
00:28:47 13 997 0 0 NW 0 96.6 710
00:31:46 13 997 0 1 NO 0 96.6 712
00:34:50 13 997 0 2 NW 0 96.6 709
00:37:48 13 998 0 0 W 0 96.6 687
00:40:48 13 997 0 3 W 0 96.6 687
00:43:48 13 998 0 1 SW 0 96.6 695
00:46:48 13 997 0 4 W 0 96.6 715
00:49:47 13 997 0 1 SW 0 96.6 716
00:52:47 13 998 0 1 SO 0 96.6 705
00:55:48 13 997 0 2 SO 0 96.6 684
00:58:48 13 998 0 2 N 0 96.6 666
01:01:47 12 998 0 2 W 0 96.6 663
01:04:48 12 997 0 3 W 0 96.6 659
01:07:48 12 998 0 2 W 0 96.6 666
01:10:48 12 997 0 0 NW 0 96.6 666
01:13:46 12 998 0 1 N 0 96.6 673
01:16:48 12 998 0 3 SW 0 96.6 671
01:19:50 12 998 0 6 SW 0 96.6 662
01:22:47 12 997 0 3 O 0 96.6 661
01:25:47 12 997 0 6 O 0 96.6 665
01:28:47 12 997 0 2 S 0 96.6 669
01:31:48 12 998 0 3 W 0 96.6 677
01:34:47 12 997 0 2 W 0 96.6 682
01:37:48 12 997 0 0 SO 0 96.6 689
01:40:49 12 998 0 3 SW 0 96.6 687
01:43:48 12 997 0 2 NW 0 96.6 684
01:46:48 12 997 0 2 NO 0 96.6 682
01:49:48 12 997 0 2 NW 0 96.6 685
01:52:47 12 998 0 1 N 0 96.6 686
01:55:46 12 998 0 3 O 0 96.6 688
01:58:48 12 998 0 2 SO 0 96.6 688
02:01:48 12 998 0 1 SW 0 96.6 693
02:04:48 12 997 0 1 NW 0 96.6 696
02:07:48 12 997 0 1 W 0 96.6 691
02:10:47 12 998 0 2 W 0 96.6 685
02:13:49 12 997 0 2 SW 0 96.6 692
02:16:47 12 998 0 6 W 0 96.6 697
02:19:48 12 998 0 1 NW 0 96.6 703
02:22:47 12 997 0 2 W 0 96.6 701
02:25:47 12 998 0 1 O 0 96.6 697
02:28:48 12 998 0 0 W 0 96.6 697
02:31:47 12 998 0 2 W 0 96.6 690
02:34:47 12 998 0 0 N 0 96.6 695
02:37:49 12 997 0 1 NW 0 96.6 702
02:40:49 12 998 0 1 S 0 96.6 707
02:43:49 12 998 0 2 SO 0 96.6 707
02:46:48 12 998 0 2 S 0 96.6 704
02:49:49 12 998 0 0 O 0 96.6 698
02:52:48 11 998 0 0 NW 0 96.6 698
02:55:47 11 998 0 0 O 0 96.6 699
02:58:51 11 998 0 10 SW 0.2575 96.6 707
03:01:46 11 998 0 0 S 0 96.6 718
03:04:52 11 998 0 0 NW 0 96.6 724
03:07:46 11 997 0 0 W 0 96.6 721
03:10:45 11 998 0 2 N 0 96.6 713
03:13:46 11 998 0 0 SW 0 96.6 713
03:16:46 11 998 0 1 NO 0 96.6 715
03:19:47 11 998 0 0 S 0 96.6 733
03:22:47 11 998 0 0 S 0 96.6 727
03:25:47 11 998 0 1 W 0 96.6 729
03:28:47 11 998 0 1 W 0 96.6 706
03:31:46 11 998 0 0 S 0 96.6 709
03:34:45 11 998 0 0 N 0 96.6 715
03:37:48 11 998 0 0 SO 0 96.6 717
03:40:50 11 998 0 0 NW 0 96.6 715
03:43:48 11 998 0 0 S 0 96.6 713
03:46:48 11 998 0 0 S 0 96.6 710
03:49:48 11 998 0 0 SW 0 96.6 706
03:52:47 11 998 0 3 SO 0 96.6 712
03:55:47 11 998 0 1 SW 0 96.6 710
03:58:49 11 998 0 0 W 0 96.6 709
04:01:49 11 998 0 0 S 0 96.6 713
04:04:49 11 998 0 1 SW 0 96.6 718
04:07:47 11 998 0 3 SO 0 96.6 721
04:10:47 11 998 0 1 NW 0 96.6 719
04:13:47 11 998 0 0 W 0 96.6 715
04:16:48 11 998 0 0 O 0 96.6 712

Letzte Änderung : 31-Dez-2020
Copyright Jens Köhler, Wolfsburg, Obere Dorfstraße 10d